Back to catalog

FENGYUN 1C DEB *

LostSSO
NORAD 47043·DEBRIS·🇨🇳 China

Launched May 10, 1999 from Taiyuan Satellite Launch Center

Loading…

Next Passes (next 24 hours)

TLE

StaleSource: Space-Track

Epoch: Oct 28, 2022, 22:30 UTC

1 47043U 99025FBV 22301.93793775  .00002362  00000-0  10925-2 0  9993
2 47043  98.9206 351.8282 0040073  73.6058 286.9518 14.21418125533937

Track FENGYUN 1C DEB * in real time with AllMySat

Download on the App Store